TimeCDT,TemperatureF,Dew PointF,Humidity,Sea Level PressureIn,VisibilityMPH,Wind Direction,Wind SpeedMPH,Gust SpeedMPH,PrecipitationIn,Events,Conditions,WindDirDegrees,DateUTC
12:15 AM,61.3,58.1,89,29.94,10.0,SSE,8.1,-,N/A,,Overcast,160,2012-10-22 05:15:00
12:35 AM,62.4,58.6,87,29.93,10.0,SSE,8.1,-,N/A,,Overcast,160,2012-10-22 05:35:00
12:55 AM,62.8,59.2,88,29.94,10.0,South,9.2,-,N/A,,Overcast,170,2012-10-22 05:55:00
1:15 AM,63.5,59.9,88,29.93,10.0,SSE,9.2,-,N/A,,Overcast,160,2012-10-22 06:15:00
1:35 AM,64.4,60.8,88,29.93,10.0,SSE,9.2,-,N/A,,Overcast,160,2012-10-22 06:35:00
1:55 AM,64.8,61.2,88,29.93,10.0,SSE,9.2,-,N/A,,Overcast,160,2012-10-22 06:55:00
2:15 AM,65.3,61.7,88,29.92,10.0,SSE,8.1,-,N/A,,Overcast,160,2012-10-22 07:15:00
2:35 AM,65.3,61.7,88,29.92,10.0,SSE,8.1,-,N/A,,Overcast,150,2012-10-22 07:35:00
2:55 AM,66.2,62.6,88,29.92,10.0,SSE,6.9,-,N/A,,Overcast,150,2012-10-22 07:55:00
3:15 AM,64.9,61.7,89,29.92,10.0,SSE,6.9,-,N/A,,Overcast,150,2012-10-22 08:15:00
3:35 AM,64.8,61.9,90,29.90,10.0,SSE,6.9,-,N/A,,Overcast,160,2012-10-22 08:35:00
3:55 AM,65.5,62.2,89,29.89,10.0,SSE,6.9,-,N/A,,Overcast,160,2012-10-22 08:55:00
4:15 AM,66.0,62.6,89,29.88,10.0,SSE,9.2,-,N/A,,Overcast,160,2012-10-22 09:15:00
4:35 AM,66.4,62.8,88,29.89,10.0,South,10.4,-,N/A,,Overcast,170,2012-10-22 09:35:00
4:55 AM,66.6,63.0,88,29.90,10.0,South,10.4,-,N/A,,Overcast,170,2012-10-22 09:55:00
5:15 AM,66.2,62.8,89,29.90,10.0,South,9.2,-,N/A,,Overcast,170,2012-10-22 10:15:00
5:35 AM,65.8,62.8,90,29.89,10.0,SSE,9.2,-,N/A,,Scattered Clouds,160,2012-10-22 10:35:00
5:55 AM,65.7,62.8,90,29.89,10.0,South,10.4,-,N/A,,Clear,170,2012-10-22 10:55:00
6:15 AM,65.3,62.8,92,29.88,10.0,SSE,10.4,-,N/A,,Clear,160,2012-10-22 11:15:00
6:35 AM,65.3,62.8,92,29.89,10.0,South,8.1,-,N/A,,Clear,170,2012-10-22 11:35:00
7:15 AM,65.5,63.3,93,29.90,10.0,South,9.2,-,N/A,Rain-Thunderstorm,Light Thunderstorms and Rain,170,2012-10-22 12:15:00
7:35 AM,65.5,63.7,94,29.92,4.0,SSW,8.1,-,0.22,Rain-Thunderstorm,Heavy Thunderstorms and Rain,200,2012-10-22 12:35:00
8:15 AM,64.9,64.6,99,29.88,5.0,East,8.1,-,0.04,Rain-Thunderstorm,Light Thunderstorms and Rain,100,2012-10-22 13:15:00
8:35 AM,64.4,64.4,100,29.92,5.0,SSE,11.5,-,N/A,Rain-Thunderstorm,Light Thunderstorms and Rain,160,2012-10-22 13:35:00
8:55 AM,64.6,64.4,99,29.92,10.0,SSE,6.9,-,0.05,,Scattered Clouds,160,2012-10-22 13:55:00
9:15 AM,64.6,64.4,99,29.92,10.0,Calm,Calm,-,N/A,,Mostly Cloudy,0,2012-10-22 14:15:00
9:35 AM,64.6,64.4,99,29.92,10.0,Calm,Calm,-,N/A,,Overcast,0,2012-10-22 14:35:00
9:55 AM,64.4,64.4,100,29.93,7.0,East,5.8,-,N/A,,Overcast,80,2012-10-22 14:55:00
10:15 AM,64.4,64.0,99,29.93,5.0,East,5.8,-,N/A,Rain,Light Rain,100,2012-10-22 15:15:00
10:35 AM,64.8,64.6,99,29.92,4.0,Calm,Calm,-,0.02,Rain,Light Rain,0,2012-10-22 15:35:00
10:55 AM,65.3,64.9,99,29.91,5.0,ESE,5.8,-,0.02,,Overcast,120,2012-10-22 15:55:00
11:15 AM,65.7,65.5,99,29.90,7.0,SSE,9.2,-,N/A,,Overcast,150,2012-10-22 16:15:00
11:35 AM,66.6,66.4,99,29.90,10.0,SSE,10.4,-,N/A,,Overcast,150,2012-10-22 16:35:00
11:55 AM,67.1,67.1,100,29.89,10.0,SSE,9.2,-,N/A,,Overcast,150,2012-10-22 16:55:00
12:15 PM,68.0,67.8,99,29.89,10.0,South,10.4,-,N/A,,Overcast,170,2012-10-22 17:15:00
12:35 PM,69.1,68.9,99,29.88,10.0,SSE,11.5,-,N/A,,Overcast,160,2012-10-22 17:35:00
12:55 PM,70.0,67.5,92,29.88,10.0,SSE,9.2,-,N/A,,Overcast,150,2012-10-22 17:55:00
1:15 PM,70.0,67.1,91,29.88,10.0,SE,6.9,-,N/A,,Overcast,140,2012-10-22 18:15:00
1:35 PM,70.2,66.7,89,29.88,10.0,ESE,6.9,-,N/A,,Overcast,120,2012-10-22 18:35:00
1:55 PM,70.3,66.9,89,29.88,10.0,ESE,8.1,-,N/A,,Overcast,110,2012-10-22 18:55:00
2:15 PM,70.2,66.7,89,29.88,10.0,ESE,9.2,-,N/A,,Overcast,120,2012-10-22 19:15:00
2:35 PM,69.8,66.4,89,29.88,10.0,ESE,10.4,-,N/A,,Overcast,110,2012-10-22 19:35:00
2:55 PM,70.3,66.4,87,29.87,10.0,ESE,9.2,-,N/A,,Overcast,120,2012-10-22 19:55:00
3:15 PM,71.4,66.6,85,29.86,10.0,ESE,11.5,-,N/A,,Overcast,110,2012-10-22 20:15:00
3:35 PM,71.6,66.7,85,29.86,10.0,ESE,10.4,-,N/A,,Overcast,110,2012-10-22 20:35:00
3:55 PM,72.7,67.1,83,29.86,10.0,ESE,9.2,-,N/A,,Mostly Cloudy,110,2012-10-22 20:55:00
4:15 PM,73.0,67.6,83,29.86,10.0,East,9.2,-,N/A,,Mostly Cloudy,90,2012-10-22 21:15:00
4:35 PM,74.5,67.6,79,29.86,10.0,SE,10.4,-,N/A,,Overcast,140,2012-10-22 21:35:00
4:55 PM,75.0,67.5,77,29.87,10.0,SSE,10.4,-,N/A,,Overcast,150,2012-10-22 21:55:00
5:15 PM,75.0,67.1,76,29.87,10.0,SSE,10.4,-,N/A,,Overcast,160,2012-10-22 22:15:00
5:35 PM,74.3,67.1,78,29.87,10.0,South,11.5,-,N/A,,Overcast,170,2012-10-22 22:35:00
5:55 PM,73.8,67.1,80,29.88,10.0,South,9.2,-,N/A,,Mostly Cloudy,170,2012-10-22 22:55:00
6:15 PM,72.5,67.1,83,29.88,10.0,South,8.1,-,N/A,,Mostly Cloudy,170,2012-10-22 23:15:00
6:35 PM,73.0,67.1,82,29.88,10.0,South,8.1,-,N/A,,Overcast,190,2012-10-22 23:35:00
6:55 PM,74.3,66.6,77,29.88,10.0,South,12.7,18.4,N/A,,Overcast,190,2012-10-22 23:55:00
7:15 PM,73.4,66.4,79,29.89,10.0,South,10.4,-,N/A,,Mostly Cloudy,180,2012-10-23 00:15:00
7:35 PM,72.3,66.2,81,29.89,10.0,South,9.2,-,N/A,,Mostly Cloudy,180,2012-10-23 00:35:00
8:15 PM,71.1,65.7,83,29.89,10.0,South,10.4,-,N/A,,Mostly Cloudy,180,2012-10-23 01:15:00
8:35 PM,70.7,65.3,83,29.89,10.0,South,11.5,-,N/A,,Scattered Clouds,180,2012-10-23 01:35:00
8:55 PM,70.7,64.9,82,29.89,10.0,South,10.4,-,N/A,,Mostly Cloudy,180,2012-10-23 01:55:00
9:15 PM,70.2,64.6,82,29.89,10.0,South,9.2,-,N/A,,Overcast,180,2012-10-23 02:15:00
9:35 PM,69.8,64.4,83,29.89,10.0,South,10.4,-,N/A,,Scattered Clouds,180,2012-10-23 02:35:00
9:55 PM,69.8,64.4,83,29.89,10.0,South,11.5,-,N/A,,Clear,190,2012-10-23 02:55:00
10:15 PM,69.6,64.4,83,29.89,10.0,South,9.2,-,N/A,,Clear,190,2012-10-23 03:15:00
10:35 PM,69.4,64.6,84,29.89,10.0,South,9.2,-,N/A,,Clear,190,2012-10-23 03:35:00
10:55 PM,69.3,64.8,86,29.89,10.0,SSW,8.1,-,N/A,,Clear,200,2012-10-23 03:55:00
11:15 PM,69.1,64.9,87,29.89,10.0,South,8.1,-,N/A,,Clear,190,2012-10-23 04:15:00
11:35 PM,69.1,65.3,88,29.89,10.0,SSW,4.6,-,N/A,,Clear,200,2012-10-23 04:35:00
11:55 PM,68.0,64.4,88,29.89,10.0,SSW,4.6,-,N/A,,Clear,210,2012-10-23 04:55:00